User: anonymous   Login
Location: Molveno
(46.1500°N, 10.9667°E)
Time: 00:20:54
(UTC+00:00)
Language:

SL-08 ROCKET BODY - Orbit

View from above orbital plane
View from above orbital plane
View from above satellite
View from above satellite

Ground track
Ground track

The orbit data is extracted from the following two-line orbital elements,

1 28522U 05002B   20273.22415900 +.00000067 +00000-0 +41168-4 0  9990
2 28522 082.9490 166.0458 0046986 080.5980 280.0491 13.89587186795715
Epoch (UTC): 29 September 2020 05:22:47
Eccentricity: 0.0046986
inclination: 82.9490°
perigee height: 896 km
apogee height: 964 km
right ascension of ascending node: 166.0458°
argument of perigee: 80.5980°
revolutions per day: 13.89587186
mean anomaly at epoch: 280.0491°
orbit number at epoch: 79571

The dashed part of the orbit path shows where the satellite is in the earth's shadow,  

DLR